星链-33936 (STARLINK-33936)

导读

STARLINK-33936是美国SpaceX公司星链星座的卫星,于2025年5月14日前后由猎鹰9号火箭发射升空,属于星链组网任务的一部分。作为星链互联网星座的成员,该卫星运行在近地轨道,依托星座庞大规模,为全球提供高速卫星互联网服务,覆盖偏远地区、航空和海事等场景,进一步扩充了星链系统的服务能力。

Basic Information
目录编号:
64005
目录名称:
STARLINK-33936
国际标识:
2025-101M
轨道中心:
EARTH
卫星名称:
星链-33936
卫星全名:
星链-33936 (STARLINK-33936)
卫星状态:
在轨 (已飞行396 天)
发射日期:
2025-05-14 UTC
国别 :
美国 (US)
星等 :
--
Orbit Information
数据来源 国际轨道数据 AOE轨道数据
星历时间 2026-06-14T01:20:46+0800
12小时前
查看轨道信息
2026-06-12T04:00:00+0800
2天前
查看轨道信息
半长轴 6861.165km 6861.182km
偏心率 0.0003336 0.0000119
轨道倾角 42.992° 42.999°
近地点辐角 279.216° 194.764°
升交点赤经 175.494° 186.169°
平近点角 80.831° 202.587°
近地点 480.739km 482.963km
远地点 485.317km 483.127km
周期 94.266分钟 94.267分钟
每日圈数 15.275872 15.275817
Detailed Information
固有亮度:
5
最大亮度:
2.5
卫星平台:
Starlink V1.0
覆盖范围:
全球
运营商:
太空探索技术公司
运营商所在国:
美国
制造商(研发单位):
太空探索技术公司
制造商所在国:
美国
使用方式:
暂无
Satellite Introduction
Starlink 计划是 SpaceX 推出的全球卫星互联网项目,通过发射低轨道卫星,为全球尤其是偏远地区提供高速、低延迟的互联网服务。自 2019 年起,Starlink 已部署数千颗卫星,旨在缩小全球数字鸿沟,推动互联网普及。该项目还为军事、航空等行业提供通信支持,带来广泛经济效益。
2D Orbit Map
3D Orbit Map
Orbit Altitude Analysis Chart
Orbit Inclination Analysis Chart
Orbit Comprehensive Analysis Chart
View Comprehensive Chart